DLHC46 EDDH-EDDF

Flight info

Callsign DLHC46
Flight time N/A
Altitude 30000
Route AMLUH2G/33 AMLUH M852 DENIX DCT RIMET/N0452F310 T157 KOKEB/N0408F230 T157 KERAX KERAX5A
Aircraft A320/M-SDE3FGHIRWY/LB1

Departure

Time 2026-04-24 19:43
Airport Hamburg Helmut Schmidt Airport (EDDH)

Arrival

Time N/A
Airport Frankfurt Main Airport (EDDF)
Time Latitude Longitude Altitude Speed Heading
2026-04-24 18:54 53.62892 10.00214 45 ft 0 kts 122°
2026-04-24 19:31 53.62904 10.00184 66 ft 4 kts 123°
2026-04-24 19:31 53.62916 10.00154 40 ft 4 kts 126°
2026-04-24 19:32 53.62933 10.00126 43 ft 4 kts 178°
2026-04-24 19:32 53.62954 10.00139 42 ft 4 kts 206°
2026-04-24 19:32 53.62965 10.00148 43 ft 0 kts 212°
2026-04-24 19:35 53.62963 10.00146 43 ft 2 kts 212°
2026-04-24 19:35 53.62943 10.00125 44 ft 2 kts 212°
2026-04-24 19:35 53.62937 10.00119 43 ft 1 kts 212°
2026-04-24 19:35 53.62923 10.00104 45 ft 4 kts 212°
2026-04-24 19:36 53.62885 10.00064 45 ft 7 kts 212°
2026-04-24 19:36 53.62856 9.99996 45 ft 7 kts 244°
2026-04-24 19:36 53.62847 9.99968 45 ft 0 kts 243°
2026-04-24 19:40 53.62830 9.99913 45 ft 10 kts 243°
2026-04-24 19:40 53.62812 9.99802 46 ft 11 kts 289°
2026-04-24 19:40 53.62845 9.99761 46 ft 0 kts 334°
2026-04-24 19:42 53.62851 9.99756 46 ft 4 kts 334°
2026-04-24 19:42 53.62993 9.99635 46 ft 56 kts 332°
2026-04-24 19:42 53.63535 9.99163 49 ft 116 kts 333°
2026-04-24 19:42 53.64395 9.98429 52 ft 161 kts 334°
2026-04-24 19:43 53.65425 9.97649 723 ft 154 kts 332°
2026-04-24 19:43 53.66386 9.96878 1419 ft 156 kts 330°
2026-04-24 19:43 53.67387 9.95997 1904 ft 172 kts 330°
2026-04-24 19:43 53.68524 9.95050 2286 ft 191 kts 340°
2026-04-24 19:44 53.69861 9.94720 3053 ft 196 kts 357°
2026-04-24 19:44 53.71229 9.94716 3905 ft 198 kts 357°
2026-04-24 19:44 53.72591 9.95229 4662 ft 212 kts 27°
2026-04-24 19:44 53.73570 9.97202 4928 ft 230 kts 62°
2026-04-24 19:45 53.74058 9.99805 4981 ft 234 kts 71°
2026-04-24 19:45 53.74169 10.02570 5028 ft 244 kts 95°
2026-04-24 19:45 53.73643 10.05383 5518 ft 265 kts 114°
2026-04-24 19:45 53.72681 10.08210 5938 ft 287 kts 118°
2026-04-24 19:46 53.71669 10.11184 6683 ft 295 kts 117°
2026-04-24 19:46 53.70650 10.14222 7475 ft 300 kts 117°
2026-04-24 19:46 53.69536 10.17237 8259 ft 307 kts 127°
2026-04-24 19:46 53.67999 10.19781 9053 ft 313 kts 143°
2026-04-24 19:47 53.66084 10.21579 9801 ft 319 kts 160°
2026-04-24 19:47 53.63953 10.22669 10058 ft 321 kts 167°
2026-04-24 19:47 53.61767 10.23664 10135 ft 338 kts 167°
2026-04-24 19:47 53.59405 10.24727 10138 ft 353 kts 167°
2026-04-24 19:48 53.56988 10.25818 10136 ft 361 kts 166°
2026-04-24 19:48 53.54548 10.26925 10326 ft 368 kts 166°
2026-04-24 19:48 53.49531 10.29220 11644 ft 381 kts 167°
2026-04-24 19:49 53.44366 10.31581 13111 ft 388 kts 167°
2026-04-24 19:49 53.39118 10.33966 14490 ft 394 kts 167°
2026-04-24 19:50 53.31107 10.37564 16414 ft 401 kts 167°
2026-04-24 19:50 53.28404 10.38768 17036 ft 404 kts 167°
2026-04-24 19:51 53.22939 10.41207 18259 ft 409 kts 167°
2026-04-24 19:51 53.20185 10.42434 18790 ft 411 kts 168°
2026-04-24 19:52 53.14613 10.44846 19801 ft 415 kts 172°
2026-04-24 19:52 53.11755 10.45385 20305 ft 413 kts 182°
2026-04-24 19:52 53.08892 10.45165 20804 ft 412 kts 188°
2026-04-24 19:52 53.06028 10.44753 21315 ft 414 kts 188°
2026-04-24 19:53 53.03149 10.44341 21811 ft 416 kts 188°
2026-04-24 19:53 53.00252 10.43934 22298 ft 418 kts 188°
2026-04-24 19:53 52.94417 10.43134 23267 ft 422 kts 188°
2026-04-24 19:54 52.91480 10.42735 23726 ft 424 kts 188°
2026-04-24 19:54 52.88529 10.42330 24054 ft 427 kts 189°
2026-04-24 19:54 52.85566 10.41930 24141 ft 426 kts 189°
2026-04-24 19:54 52.82612 10.41533 24158 ft 426 kts 189°
2026-04-24 19:55 52.80656 10.41271 24163 ft 426 kts 189°
2026-04-24 19:55 52.76705 10.40744 24157 ft 426 kts 189°
2026-04-24 19:55 52.73748 10.40349 24161 ft 426 kts 189°
2026-04-24 19:55 52.70795 10.39948 24157 ft 426 kts 189°
2026-04-24 19:56 52.67836 10.39546 24163 ft 426 kts 189°
2026-04-24 19:56 52.64918 10.39152 24165 ft 426 kts 189°
2026-04-24 19:56 52.61959 10.38755 24202 ft 428 kts 189°
2026-04-24 19:56 52.58985 10.38355 24600 ft 429 kts 189°
2026-04-24 19:57 52.56001 10.37948 24983 ft 431 kts 189°
2026-04-24 19:57 52.53007 10.37541 25362 ft 433 kts 189°
2026-04-24 19:57 52.49993 10.37136 25728 ft 435 kts 189°
2026-04-24 19:57 52.46972 10.36733 26087 ft 437 kts 189°
2026-04-24 19:58 52.43935 10.36325 26443 ft 439 kts 189°
2026-04-24 19:58 52.40885 10.35913 26798 ft 441 kts 189°
2026-04-24 19:58 52.37819 10.35502 27155 ft 442 kts 189°
2026-04-24 19:58 52.34749 10.35091 27510 ft 444 kts 190°
2026-04-24 19:59 52.31661 10.34682 27834 ft 446 kts 190°
2026-04-24 19:59 52.28563 10.34272 28157 ft 448 kts 190°
2026-04-24 19:59 52.25451 10.33861 28480 ft 449 kts 190°
2026-04-24 19:59 52.22322 10.33449 28791 ft 451 kts 190°
2026-04-24 20:00 52.19191 10.33038 29102 ft 453 kts 190°
2026-04-24 20:00 52.16049 10.32628 29401 ft 454 kts 191°
2026-04-24 20:00 52.12892 10.32210 29700 ft 456 kts 191°
2026-04-24 20:00 52.09732 10.31794 30101 ft 455 kts 191°
2026-04-24 20:01 52.06584 10.31384 30497 ft 453 kts 191°
2026-04-24 20:01 52.03444 10.30975 30853 ft 452 kts 191°
2026-04-24 20:01 52.00306 10.30570 31104 ft 452 kts 191°
2026-04-24 20:02 51.95121 10.29897 31158 ft 448 kts 191°
2026-04-24 20:02 51.87866 10.28937 31156 ft 447 kts 191°
2026-04-24 20:03 51.81668 10.28124 30900 ft 447 kts 191°
2026-04-24 20:03 51.78567 10.27729 30653 ft 447 kts 191°
2026-04-24 20:03 51.75462 10.27338 30405 ft 447 kts 191°
2026-04-24 20:03 51.72355 10.26946 30157 ft 448 kts 191°
2026-04-24 20:04 51.69246 10.26543 29872 ft 448 kts 191°
2026-04-24 20:04 51.66176 10.26142 29589 ft 449 kts 191°
2026-04-24 20:04 51.63016 10.25731 29304 ft 450 kts 191°
2026-04-24 20:04 51.59931 10.25330 29027 ft 451 kts 190°
2026-04-24 20:05 51.56799 10.24924 28752 ft 451 kts 190°
2026-04-24 20:05 51.53672 10.24523 28476 ft 450 kts 190°